Main page
METAR-TAF:

METAR-TAF

Airports :

Oran Tafraoui Airport

Tafraoui, Algeria

latitude: 35-32-33N, longitude: 000-31-56W, elevation: 112 m

Current weather observation

The report was made 10 minutes ago, at 21:00 UTC
Wind 2 kt from the Southwest
Temperature 11°C
Humidity 94%
Pressure 1025 hPa
Visibility 10 km or more
Few clouds at a height of 2600 ft

METAR: DAOL 102100Z 23002KT 9999 FEW026 11/10 Q1025

Time: 22:10 (21:10 UTC)


TAF: missing

Weather observations and forecasts of more than 4000 airports (METAR and TAF reports).

The available stations are represented by yellow and red dots on the map.

Hover mouse over dot to see the name of the station.

Then click to see weather observations and forecasts.

To change the map : click on the green buttons with a black cross to zoom in, on the green button with a dash to zoom out, or on the green arrows for adjacent maps.


METAR-TAF: